Weather History for Branson, MO

Change the Weather History Date:

Friday, February 1, 2013

  Actual Average (KHRO) Record (KHRO)
Temperature  
Mean Temperature 22 °F 38 °F  
Max Temperature 35 °F 48 °F 82 °F (1911)
Min Temperature 10 °F 28 °F -4 °F (1951)
Degree Days  
Heating Degree Days 42 27  
Month to date heating degree days 27  
Since 1 July heating degree days 2513  
Cooling Degree Days 0 0  
Month to date cooling degree days 0  
Year to date cooling degree days 0  
Moisture  
Dew Point 7 °F    
Average Humidity 53    
Maximum Humidity 73    
Minimum Humidity 30    
Precipitation  
Precipitation 0.00 in 0.09 in 2.41 in (1990)
Month to date precipitation 0.09  
Year to date precipitation 2.65  
Snow  
Snow 0.00 in 0.20 in 4.00 in (1985)
Month to date snowfall 0.2  
Since 1 July snowfall 6.2  
Snow Depth -    
Sea Level Pressure  
Sea Level Pressure 30.32 in    
Wind  
Wind Speed 8 mph (East)    
Max Wind Speed 15 mph    
Max Gust Speed 21 mph    
Visibility 10 miles    
Events      
T = Trace of Precipitation, MM = Missing Value Source: NWS Daily Summary

Daily Weather History Graph

Daily Weather History Graph

Search for Another Location

Airport:

Trip Planner

Search our weather history database for the weather conditions in past years. The results will help you decide how hot, cold, wet, or windy it might be!

Date:

Astronomy

Feb. 01, 2013 Rise Set
Actual Time 7:14 AM CST 5:39 PM CST
Civil Twilight 6:47 AM CST 6:06 PM CST
Nautical Twilight 6:16 AM CST 6:37 PM CST
Astronomical Twilight 5:45 AM CST 7:07 PM CST
Moon 11:34 PM CST 9:58 AM CST
Length of Visible Light 11h 19m
Length of Day
10h 24m
Waning Gibbous, 70% of the Moon is Illuminated
Feb 1
Waning Gibbous
Feb 3
Last Quarter
Feb 10
New
Feb 17
First Quarter
Feb 25
Full

Hourly Weather History & Observations

Time (CST) Temp. Windchill Dew Point Humidity Pressure Visibility Wind Dir Wind Speed Gust Speed Precip Events Conditions
12:15 AM 15.8 °F 1.4 °F 3.2 °F 58% 30.40 in 10.0 mi NNW 13.8 mph 19.6 mph N/A   Clear
12:35 AM 15.8 °F 0.9 °F 1.4 °F 53% 30.40 in 10.0 mi NNW 15.0 mph 20.7 mph N/A   Clear
12:55 AM 14.0 °F 1.2 °F 1.4 °F 57% 30.41 in 10.0 mi NW 10.4 mph - N/A   Clear
1:15 AM 14.0 °F 3.9 °F 1.4 °F 57% 30.41 in 10.0 mi NW 6.9 mph - N/A   Clear
1:35 AM 14.0 °F 2.0 °F 3.2 °F 62% 30.42 in 10.0 mi NW 9.2 mph - N/A   Clear
1:55 AM 14.0 °F 0.5 °F 1.4 °F 57% 30.42 in 10.0 mi NW 11.5 mph 16.1 mph N/A   Clear
2:15 AM 14.0 °F 0.5 °F 1.4 °F 57% 30.41 in 10.0 mi NW 11.5 mph - N/A   Clear
2:55 AM 12.2 °F -2.5 °F 1.4 °F 62% 30.40 in 10.0 mi NNW 12.7 mph - N/A   Clear
3:15 AM 12.2 °F 1.7 °F 1.4 °F 62% 30.41 in 10.0 mi NNW 6.9 mph - N/A   Clear
3:35 AM 12.2 °F 0.7 °F 3.2 °F 67% 30.40 in 10.0 mi NNW 8.1 mph - N/A   Clear
3:55 AM 12.2 °F 2.9 °F 1.4 °F 62% 30.41 in 10.0 mi NNW 5.8 mph - N/A   Clear
4:15 AM 10.4 °F 4.0 °F 1.4 °F 67% 30.40 in 10.0 mi NNE 3.5 mph - N/A   Clear
4:55 AM 10.4 °F 2.2 °F 1.4 °F 67% 30.41 in 10.0 mi North 4.6 mph - N/A   Clear
5:15 AM 10.4 °F - 1.4 °F 67% 30.42 in 10.0 mi Calm Calm - N/A   Clear
5:35 AM 10.4 °F 4.0 °F 1.4 °F 67% 30.42 in 10.0 mi SW 3.5 mph - N/A   Clear
6:50 AM 10.4 °F - 3.2 °F 73% 30.44 in 10.0 mi Calm Calm - N/A   Clear
7:48 AM 10.4 °F - 1.4 °F 67% 30.45 in 10.0 mi Calm Calm - N/A   Clear
8:45 AM 14.0 °F - 3.2 °F 62% 30.46 in 10.0 mi Calm Calm - N/A   Clear
9:51 AM 17.6 °F - 1.4 °F 49% 30.46 in 10.0 mi Calm Calm - N/A   Clear
10:45 AM 23.0 °F 17.0 °F 3.2 °F 43% 30.44 in 10.0 mi NE 4.6 mph - N/A   Clear
11:45 AM 26.6 °F 18.2 °F 3.2 °F 37% 30.42 in 10.0 mi ESE 8.1 mph - N/A   Partly Cloudy
12:50 PM 30.2 °F 22.6 °F 3.2 °F 32% 30.37 in 10.0 mi SE 8.1 mph - N/A   Clear
1:50 PM 32.0 °F 24.2 °F 5.0 °F 32% 30.34 in 10.0 mi SE 9.2 mph - N/A   Scattered Clouds
3:45 PM 35.6 °F 27.5 °F 6.8 °F 30% 30.28 in 10.0 mi SE 11.5 mph - N/A   Scattered Clouds
4:45 PM 35.6 °F 28.0 °F 8.6 °F 33% 30.26 in 10.0 mi ESE 10.4 mph - N/A   Mostly Cloudy
5:52 PM 32.0 °F 24.2 °F 8.6 °F 38% 30.21 in 10.0 mi ESE 9.2 mph - N/A   Mostly Cloudy
6:58 PM 32.0 °F 26.4 °F 10.4 °F 41% 30.22 in 10.0 mi SE 5.8 mph - N/A   Scattered Clouds
7:51 PM 32.0 °F 24.2 °F 12.2 °F 44% 30.20 in 10.0 mi SE 9.2 mph - N/A   Scattered Clouds
7:55 PM 32.0 °F 23.6 °F 12.2 °F 44% 30.19 in 10.0 mi SE 10.4 mph - N/A   Clear
8:15 PM 32.0 °F 22.5 °F 12.2 °F 44% 30.18 in 10.0 mi SE 12.7 mph - N/A   Clear
8:35 PM 32.0 °F 23.6 °F 12.2 °F 44% 30.18 in 10.0 mi SE 10.4 mph - N/A   Clear
8:50 PM 32.0 °F 23.6 °F 12.2 °F 44% 30.19 in 10.0 mi SE 10.4 mph - N/A   Partly Cloudy
8:55 PM 32.0 °F 23.6 °F 12.2 °F 44% 30.18 in 10.0 mi SE 10.4 mph - N/A   Clear
9:15 PM 30.2 °F 21.9 °F 12.2 °F 47% 30.19 in 10.0 mi SE 9.2 mph - N/A   Clear
9:35 PM 30.2 °F 23.4 °F 12.2 °F 47% 30.21 in 10.0 mi SE 6.9 mph - N/A   Clear
9:55 PM 28.4 °F 23.3 °F 14.0 °F 55% 30.21 in 10.0 mi SE 4.6 mph - N/A   Clear
10:15 PM 28.4 °F 24.6 °F 12.2 °F 51% 30.22 in 10.0 mi ESE 3.5 mph - N/A   Clear
10:35 PM 28.4 °F - 12.2 °F 51% 30.23 in 10.0 mi Calm Calm - N/A   Clear
10:55 PM 26.6 °F - 15.8 °F 64% 30.23 in 10.0 mi Calm Calm - N/A   Clear
11:15 PM 24.8 °F - 15.8 °F 69% 30.22 in 10.0 mi Calm Calm - N/A   Clear
11:35 PM 26.6 °F - 14.0 °F 59% 30.22 in 10.0 mi Calm Calm - N/A   Clear
11:55 PM 26.6 °F 21.2 °F 14.0 °F 59% 30.22 in 10.0 mi ESE 4.6 mph - N/A   Scattered Clouds